Location: Auckland
(36.8670°S, 174.7670°E)
Time: 13:06:36
(UTC+13:00)

ISS - Visible Passes

Search period start: 24 January 2019 00:00
Search period end: 03 February 2019 00:00
Orbit: 404 x 410 km, 51.6° (Epoch: 24 January)

Date Brightness Start Highest point End Pass type
(mag) Time Alt. Az. Time Alt. Az. Time Alt. Az.
26 Jan -1.4 05:39:57 10° N 05:42:16 18° NE 05:44:36 10° E visible
28 Jan -3.1 05:33:11 14° NNW 05:35:49 49° NE 05:39:04 10° ESE visible
29 Jan -2.1 04:44:01 23° NNE 04:44:32 24° NE 04:47:18 10° ESE visible
30 Jan -3.5 05:27:29 21° WNW 05:29:28 57° SW 05:32:47 10° SE visible
31 Jan -3.7 04:38:10 69° ENE 04:38:10 69° ENE 04:41:24 10° SE visible
01 Feb -1.0 03:48:46 17° ESE 03:48:46 17° ESE 03:49:44 10° ESE visible
01 Feb -2.1 05:21:29 16° WSW 05:23:16 25° SSW 05:26:07 10° SSE visible
02 Feb -2.8 04:32:02 41° SSW 04:32:02 41° SSW 04:34:55 10° SE visible
02 Feb -0.9 06:08:22 10° SSW 06:08:57 10° SSW 06:09:31 10° S visible
